CST,Max TemperatureF,Mean TemperatureF,Min TemperatureF,Max Dew PointF,MeanDew PointF,Min DewpointF,Max Humidity, Mean Humidity, Min Humidity, Max Sea Level PressureIn, Mean Sea Level PressureIn, Min Sea Level PressureIn, Max VisibilityMiles, Mean VisibilityMiles, Min VisibilityMiles, Max Wind SpeedMPH, Mean Wind SpeedMPH, Max Gust SpeedMPH,PrecipitationIn, CloudCover, Events, WindDirDegrees
2011-12-1,72,59,46,49,40,30,71,55,38,30.27,30.05,29.94,10,10,10,28,12,36,0.00,3,,160
2011-12-2,51,46,40,41,36,31,89,70,50,30.32,30.20,30.03,10,5,1,22,9,26,0.01,8,Rain,51
2011-12-3,68,56,44,59,49,41,93,71,48,30.10,29.97,29.84,10,8,1,29,10,38,0.26,7,Rain-Thunderstorm,14
2011-12-4,50,44,38,42,36,33,85,78,70,30.19,30.10,30.03,10,10,8,20,11,24,0.20,8,Rain,43
2011-12-5,39,36,32,34,30,23,89,81,72,30.37,30.23,30.12,10,7,1,20,13,23,0.25,8,Rain-Snow-Thunderstorm,11
2011-12-6,35,30,25,23,21,20,81,71,61,30.44,30.38,30.32,10,10,10,17,9,20,0.00,5,,324
2011-12-7,56,39,21,31,24,18,88,59,30,30.42,30.33,30.25,10,10,10,10,3,21,0.00,0,,208
2011-12-8,61,45,29,31,28,23,78,53,27,30.23,30.13,30.02,10,10,10,24,7,30,0.00,0,,202
2011-12-9,54,42,30,34,31,26,82,64,46,30.47,30.28,30.10,10,10,7,17,7,21,0.00,0,,3
2011-12-10,40,38,35,36,34,30,92,86,79,30.56,30.47,30.41,7,4,1,13,7,14,0.09,8,Rain,49
2011-12-11,48,44,39,40,38,36,92,79,66,30.43,30.31,30.19,10,6,1,12,6,15,T,8,,106
2011-12-12,52,49,45,48,45,39,93,85,76,30.21,30.15,30.10,10,4,1,13,6,16,0.01,8,,103
2011-12-13,69,59,49,61,53,46,93,81,68,30.16,30.08,29.96,10,5,0,22,9,32,0.00,8,Fog,106
2011-12-14,69,62,55,63,55,43,87,65,42,30.03,29.95,29.87,10,10,8,23,10,32,T,7,Rain,231
2011-12-15,56,50,44,47,41,37,77,68,59,30.28,30.13,30.01,10,10,10,18,10,21,0.00,8,,14
2011-12-16,55,48,40,37,32,28,76,56,35,30.45,30.36,30.27,10,10,10,17,9,21,0.00,4,,34
2011-12-17,55,48,40,38,32,28,76,56,35,30.52,30.44,30.39,10,10,10,8,4,10,0.00,7,,65
2011-12-18,59,55,50,50,45,37,89,74,59,30.39,30.20,29.99,10,9,4,16,7,21,0.01,8,,160
2011-12-19,65,54,42,57,46,27,89,57,25,29.93,29.82,29.68,10,7,2,31,13,43,0.06,6,Rain,192
2011-12-20,50,40,30,36,27,24,75,57,39,30.11,30.04,29.94,10,10,10,28,13,35,0.00,0,,290
2011-12-21,62,44,26,33,29,22,85,57,29,30.05,29.95,29.83,10,10,10,17,6,22,0.00,0,,211
2011-12-22,56,44,32,34,31,28,89,62,35,30.34,30.12,29.90,10,10,10,22,11,26,0.00,2,,328
2011-12-23,40,37,33,30,28,26,76,70,64,30.47,30.39,30.31,10,10,10,22,13,28,0.00,8,,30
2011-12-24,38,37,35,34,32,29,92,81,70,30.46,30.40,30.33,10,6,2,17,8,21,0.10,8,Rain,3
2011-12-25,42,37,32,34,31,28,89,80,70,30.50,30.42,30.38,10,9,5,12,6,14,0.01,7,Rain,301
2011-12-26,54,43,31,34,30,26,85,60,35,30.35,30.20,30.08,10,10,10,24,9,32,0.00,3,,247
2011-12-27,61,45,29,31,26,21,85,54,23,30.35,30.24,30.16,10,10,10,9,4,10,0.00,0,,232
2011-12-28,67,50,33,34,28,23,75,47,19,30.11,30.07,30.03,10,10,10,24,10,30,0.00,0,,260
2011-12-29,73,51,28,29,25,20,78,46,14,30.09,29.96,29.85,10,10,10,20,9,25,0.00,0,,234
2011-12-30,70,54,38,35,27,18,70,42,14,30.12,30.04,29.88,10,10,10,16,6,18,0.00,0,,83
2011-12-31,80,56,32,37,29,18,69,43,17,30.29,30.03,29.89,10,10,10,26,10,33,0.00,0,,222